Retour au catalogue

STARLINK-34448

ActifCommunicationsVLEO
NORAD 64291·PAYLOAD·🇺🇸 United States

Lancé Jun 8, 2025 depuis Vandenberg Space Force Base

Loading…

Prochains Passages (prochaines 24 heures)

TLE

FraisSource: CelesTrak SupGP

Époque: Sep 14, 2026, 22:46 UTC

1 64291C 25123A   26257.94909722  .00036475  00000+0  12685-2 0  2574
2 64291  69.9999  75.4623 0003710 272.3594  72.3652 15.29568051    13

Suivez STARLINK-34448 en temps réel avec AllMySat

Download on the App Store